Total_Precipitation_Accumulation
1.83 2.16 2.51 2.82 3.34 3.35 3.21 3.30 3.46 3.66 3.76 4.03 4.12 4.35 4.69 4.91 5.06 5.09 4.96 4.93 4.83 4.95 5.00 4.79 4.58 4.44 4.43 4.34 4.30 4.09 3.87 3.61 3.49 3.38 3.00 2.46 2.17 2.18 2.16 2.16 2.16 2.12 2.13
2.19 2.34 2.53 2.94 3.42 3.56 3.55 3.57 3.76 4.07 4.29 4.52 4.97 5.27 5.53 5.77 5.97 5.99 5.56 5.36 5.25 5.15 5.08 5.11 5.01 4.81 4.63 4.42 4.23 4.16 3.98 3.64 3.56 3.53 3.39 2.88 2.44 2.04 1.80 1.82 1.82 1.84 1.99
2.41 2.48 2.57 2.93 3.26 3.43 3.50 3.62 3.87 4.30 4.84 5.22 5.68 6.11 6.26 6.29 6.16 5.91 5.78 5.64 5.47 5.31 5.16 5.03 4.81 4.67 4.54 4.35 4.15 3.98 3.88 3.65 3.52 3.48 3.57 3.26 2.79 2.27 1.88 1.67 1.60 1.60 1.72
2.38 2.49 2.65 2.90 3.19 3.41 3.52 3.84 4.34 4.93 5.48 5.96 6.49 6.99 7.10 6.93 6.64 6.18 5.76 5.52 5.27 4.94 4.71 4.58 4.47 4.30 3.99 3.75 3.59 3.50 3.36 3.24 3.10 3.15 3.12 2.97 2.79 2.74 2.47 2.12 1.93 1.84 1.81
2.03 2.27 2.45 2.65 3.03 3.22 3.43 3.77 4.34 5.02 5.71 6.54 7.23 7.67 7.58 7.25 6.81 6.13 5.55 5.09 4.70 4.33 4.06 3.93 3.76 3.54 3.19 2.84 2.71 2.77 2.85 2.86 2.80 2.80 2.84 2.84 2.69 2.63 2.57 2.39 2.20 2.08 1.94
1.78 1.90 2.02 2.25 2.56 2.85 3.15 3.56 4.18 4.88 5.52 6.16 6.70 6.94 6.85 6.65 6.12 5.44 4.82 4.42 4.09 3.74 3.38 3.06 2.79 2.56 2.40 2.21 2.17 2.20 2.28 2.48 2.60 2.73 2.76 2.76 2.65 2.56 2.56 2.46 2.38 2.29 2.12
1.66 1.66 1.71 1.91 2.24 2.44 2.81 3.25 3.69 4.32 4.73 5.06 5.48 5.67 5.70 5.48 5.19 4.71 4.24 3.80 3.31 2.97 2.69 2.40 2.27 2.13 2.01 1.95 1.95 1.94 1.90 2.00 2.18 2.31 2.42 2.51 2.50 2.50 2.56 2.65 2.62 2.43 2.23
1.53 1.58 1.68 1.84 2.10 2.24 2.42 2.64 2.95 3.33 3.50 3.55 3.78 4.03 4.05 4.00 3.88 3.59 3.27 2.98 2.63 2.25 2.01 1.81 1.69 1.66 1.69 1.64 1.68 1.69 1.69 1.70 1.78 1.87 2.05 2.17 2.22 2.27 2.28 2.33 2.43 2.48 2.34
1.39 1.51 1.60 1.61 1.65 1.75 1.87 1.97 2.14 2.31 2.40 2.48 2.54 2.68 2.70 2.69 2.61 2.45 2.22 2.02 1.87 1.64 1.50 1.40 1.38 1.36 1.38 1.44 1.44 1.40 1.43 1.52 1.56 1.57 1.66 1.74 1.78 1.87 1.95 2.03 2.10 2.27 2.30
1.28 1.37 1.46 1.46 1.46 1.46 1.56 1.63 1.70 1.78 1.81 1.88 1.85 1.84 1.85 1.86 1.81 1.68 1.61 1.53 1.42 1.32 1.31 1.24 1.18 1.10 1.09 1.10 1.14 1.17 1.20 1.25 1.34 1.37 1.38 1.44 1.45 1.54 1.64 1.78 1.88 1.92 1.99
1.18 1.25 1.25 1.25 1.24 1.26 1.32 1.41 1.43 1.41 1.41 1.40 1.38 1.36 1.32 1.32 1.36 1.38 1.33 1.26 1.18 1.08 1.05 0.95 0.88 0.85 0.88 0.93 0.98 1.02 1.06 1.10 1.15 1.23 1.26 1.28 1.27 1.33 1.38 1.41 1.47 1.60 1.70
1.27 1.27 1.20 1.14 1.09 1.09 1.13 1.20 1.21 1.20 1.24 1.16 1.06 1.07 1.05 1.04 1.09 1.12 1.04 1.00 0.98 0.92 0.85 0.74 0.71 0.70 0.73 0.78 0.81 0.85 0.88 0.98 1.00 1.01 1.04 1.06 1.08 1.13 1.16 1.20 1.23 1.32 1.45
1.64 1.50 1.31 1.22 1.17 1.12 1.05 0.99 1.02 1.02 1.03 1.00 0.94 0.92 0.91 0.93 0.94 0.96 0.92 0.86 0.86 0.84 0.77 0.67 0.65 0.63 0.63 0.64 0.66 0.70 0.70 0.76 0.83 0.86 0.91 0.93 0.95 0.93 0.90 0.96 1.04 1.12 1.20
1.82 1.62 1.39 1.30 1.26 1.16 1.07 1.00 1.02 0.95 0.89 0.88 0.84 0.83 0.81 0.80 0.81 0.85 0.90 0.85 0.75 0.70 0.67 0.64 0.60 0.59 0.56 0.55 0.54 0.51 0.54 0.59 0.65 0.68 0.74 0.77 0.82 0.83 0.83 0.86 0.99 1.06 1.18
1.74 1.66 1.55 1.45 1.38 1.28 1.21 1.09 1.02 0.93 0.88 0.85 0.82 0.79 0.74 0.71 0.70 0.73 0.76 0.76 0.71 0.62 0.59 0.56 0.54 0.49 0.44 0.40 0.39 0.42 0.48 0.56 0.57 0.60 0.60 0.60 0.67 0.77 0.77 0.77 0.86 0.97 1.12
1.85 1.76 1.67 1.57 1.52 1.41 1.35 1.25 1.14 1.09 0.99 0.92 0.90 0.84 0.79 0.73 0.72 0.69 0.71 0.69 0.62 0.58 0.54 0.51 0.48 0.43 0.33 0.32 0.32 0.34 0.44 0.54 0.58 0.58 0.56 0.53 0.52 0.56 0.62 0.64 0.72 0.84 0.95
1.93 1.82 1.81 1.79 1.72 1.66 1.55 1.40 1.24 1.16 0.97 0.86 0.83 0.82 0.78 0.74 0.70 0.63 0.59 0.60 0.63 0.60 0.53 0.49 0.48 0.49 0.41 0.27 0.23 0.26 0.38 0.54 0.55 0.55 0.59 0.54 0.50 0.57 0.62 0.62 0.61 0.65 0.66
2.10 1.98 1.89 1.84 1.76 1.67 1.54 1.35 1.16 1.00 0.84 0.77 0.75 0.71 0.67 0.67 0.68 0.62 0.59 0.60 0.61 0.58 0.55 0.52 0.53 0.57 0.44 0.28 0.20 0.24 0.38 0.49 0.45 0.47 0.55 0.63 0.65 0.59 0.58 0.61 0.66 0.70 0.69
2.09 1.99 1.86 1.78 1.66 1.47 1.31 1.20 1.00 0.88 0.80 0.74 0.72 0.64 0.56 0.61 0.65 0.62 0.61 0.64 0.61 0.60 0.58 0.56 0.60 0.63 0.50 0.33 0.26 0.29 0.40 0.47 0.46 0.48 0.46 0.48 0.56 0.55 0.59 0.66 0.81 0.85 0.85
1.84 1.79 1.62 1.49 1.42 1.24 1.08 1.03 0.91 0.81 0.78 0.71 0.67 0.60 0.58 0.61 0.64 0.67 0.65 0.59 0.59 0.57 0.51 0.54 0.62 0.62 0.54 0.37 0.29 0.31 0.36 0.45 0.55 0.60 0.59 0.54 0.52 0.51 0.57 0.70 0.84 0.91 0.91
1.52 1.51 1.42 1.34 1.20 1.02 0.99 1.03 0.99 0.85 0.69 0.59 0.58 0.60 0.61 0.57 0.55 0.58 0.61 0.58 0.52 0.54 0.53 0.54 0.57 0.61 0.48 0.35 0.31 0.36 0.42 0.48 0.56 0.63 0.69 0.64 0.56 0.53 0.54 0.59 0.72 0.83 0.83
1.20 1.27 1.31 1.23 1.11 1.00 0.99 1.00 0.96 0.76 0.65 0.64 0.64 0.61 0.57 0.46 0.44 0.54 0.58 0.54 0.53 0.55 0.58 0.59 0.63 0.59 0.46 0.35 0.31 0.34 0.38 0.40 0.50 0.64 0.63 0.60 0.56 0.51 0.53 0.56 0.66 0.76 0.89
1.00 1.04 1.08 1.06 1.03 0.96 0.95 0.96 0.84 0.66 0.63 0.68 0.64 0.59 0.50 0.44 0.43 0.49 0.51 0.49 0.49 0.46 0.45 0.48 0.53 0.50 0.41 0.36 0.28 0.29 0.31 0.32 0.39 0.51 0.52 0.50 0.50 0.53 0.65 0.69 0.74 0.87 1.07
0.83 0.88 0.97 0.97 0.94 0.85 0.82 0.83 0.72 0.68 0.71 0.70 0.61 0.53 0.47 0.40 0.37 0.38 0.36 0.37 0.38 0.38 0.38 0.38 0.40 0.38 0.34 0.27 0.24 0.26 0.29 0.30 0.33 0.41 0.51 0.60 0.65 0.73 0.87 0.97 1.05 1.08 1.11
0.75 0.79 0.90 0.90 0.79 0.71 0.67 0.63 0.65 0.71 0.74 0.67 0.55 0.48 0.40 0.34 0.33 0.29 0.23 0.22 0.23 0.23 0.26 0.24 0.22 0.24 0.24 0.18 0.19 0.23 0.26 0.27 0.30 0.35 0.51 0.73 0.85 0.93 0.97 1.02 1.08 1.07 0.99
0.67 0.73 0.73 0.70 0.63 0.58 0.57 0.51 0.55 0.61 0.59 0.53 0.46 0.38 0.32 0.30 0.25 0.23 0.21 0.15 0.14 0.15 0.16 0.18 0.17 0.14 0.15 0.15 0.15 0.18 0.20 0.22 0.27 0.35 0.56 0.75 0.84 0.89 0.93 0.95 0.94 0.90 0.86